Overview Statistics Trail Chart Weather Telemetry Raw packets
 

This is the latest recevied weather packets stored in our database for station/object KE8WMS. If no packets are shown the sender has not sent any weather packets the latest 10 day(s).

<< 8 9 10 11 12 13 14 >>
Time Temp. Humidity Pressure Rain* Wind** Luminosity Snow
1777759568 7.22° C 59% 1014.4 hPa 0 mm - 126 W/m² -
1777759264 7.22° C 57% 1014.1 hPa 0 mm - 138 W/m² -
1777758961 7.22° C 58% 1014.2 hPa 0 mm - 157 W/m² -
1777758658 7.22° C 58% 1014.3 hPa 0 mm - 191 W/m² -
1777758355 7.78° C 58% 1014.1 hPa 0 mm - 194 W/m² -
1777758053 7.22° C 59% 1014.2 hPa 0 mm - 183 W/m² -
1777757749 7.22° C 61% 1014.2 hPa 0 mm - 196 W/m² -
1777757447 7.22° C 60% 1014.1 hPa 0 mm - 202 W/m² -
1777757146 7.22° C 59% 1014 hPa 0 mm - 225 W/m² -
1777756843 7.22° C 62% 1014.1 hPa 0 mm - 263 W/m² -
1777756538 6.67° C 65% 1013.9 hPa 0 mm - 277 W/m² -
1777756236 6.67° C 64% 1014.1 hPa 0 mm - 269 W/m² -
1777755933 6.67° C 63% 1014.1 hPa 0 mm - 194 W/m² -
1777755630 6.67° C 64% 1013.9 hPa 0 mm - 177 W/m² -
1777755326 6.67° C 64% 1014.2 hPa 0 mm - 162 W/m² -
1777755024 6.67° C 65% 1014.1 hPa 0 mm - 133 W/m² -
1777754721 6.11° C 65% 1014.3 hPa 0 mm - 100 W/m² -
1777754418 6.11° C 66% 1014.2 hPa 0 mm - 95 W/m² -
1777754115 6.11° C 66% 1014.3 hPa 0 mm - 85 W/m² -
1777753812 6.11° C 65% 1014 hPa 0 mm - 93 W/m² -
1777753508 6.11° C 65% 1014.1 hPa 0 mm - 88 W/m² -
1777753210 6.11° C 63% 1014.3 hPa 0 mm - 99 W/m² -
1777752902 6.11° C 61% 1014.4 hPa 0 mm - 114 W/m² -
1777752599 6.67° C 62% 1014.4 hPa 0 mm - 119 W/m² -
1777752295 6.67° C 61% 1014.4 hPa 0 mm - 173 W/m² -

* Rain latest hour (hover to see other rain measurements)
** Current wind speed in m/s (hover to see current wind gust speed)